Home > Weather > Kagoshima > Past weeks

Flag for Japan Weather for the Past 2 Weeks in Kagoshima, Japan

Now
47 °F

Cool.


Feels Like: 44 °F
Forecast: 43 / 54 °F
Wind: 6 mph from North

Location: Kagoshima

Current Time: Feb 8, 2016 at 12:02:47 PM

Latest Report: Feb 8, 2016 at 10:00 AM


Visibility: N/A

Pressure: 30.19 "Hg

Humidity: 48%

Dew point: 28 °F

Location of KagoshimaLocation

Historic Weather in Kagoshima — Graph

°F

Kagoshima Temperature Yesterday

Maximum temperature yesterday: 54 °F (at 1:00 PM)
Minimum temperature yesterday: 38 °F (at 7:00 AM)
Average temperature yesterday: 45 °F

High & Low Weather Summary for the Past Weeks

 TemperatureHumidityPressure
High67 °F (Jan 29, 1:00 PM)100% (Jan 26, 6:00 PM)30.45 "Hg (Jan 26, 6:00 PM)
Low23 °F (Jan 25, 5:00 AM)34% (Feb 7, 1:00 PM)29.93 "Hg (Jan 29, 1:00 PM)
Average47 °F72%30.21 "Hg
* Reported Jan 24 11:00 AM — Feb 8 10:00 AM, Kagoshima, Weather by CustomWeather, © 2016

Note: Actual official high and low records may vary slightly from our data, if they occured in-between our weather recording intervals... More about our weather records

Advertising

Kagoshima Weather History for the Previous 24 Hours

 ConditionsComfort  
Time TempWeatherWind HumidityBarometerVisibility
10:00 AM
Mon, Feb 8
47 °FCool.6 mph48%30.19 "HgN/A
8:00 AM36 °FChilly.8 mph80%30.17 "HgN/A
7:00 AM36 °FChilly.8 mph81%30.14 "HgN/A
6:00 AM37 °FPassing clouds.9 mph79%30.11 "Hg12 mi
5:00 AM36 °FChilly.8 mph81%30.11 "HgN/A
4:00 AM36 °FChilly.9 mph80%30.11 "HgN/A
3:00 AM37 °FPassing clouds.8 mph76%30.11 "Hg12 mi
2:00 AM38 °FChilly.7 mph75%30.11 "HgN/A
1:00 AM39 °FChilly.8 mph72%30.11 "HgN/A
12:00 AM40 °FChilly.8 mph70%30.11 "HgN/A
11:00 PM
Sun, Feb 7
40 °FQuite cool.8 mph69%30.12 "HgN/A
10:00 PM41 °FQuite cool.6 mph70%30.12 "HgN/A
9:00 PM42 °FPassing clouds.5 mph64%30.12 "Hg12 mi
8:00 PM44 °FQuite cool.5 mph59%30.11 "HgN/A
7:00 PM45 °FCool.10 mph58%30.09 "HgN/A
6:00 PM47 °FPassing clouds.7 mph53%30.11 "Hg16 mi
5:00 PM48 °FCool.8 mph51%30.09 "HgN/A
4:00 PM50 °FCool.12 mph45%30.08 "HgN/A
3:00 PM51 °FScattered clouds.13 mph41%30.08 "Hg16 mi
2:00 PM50 °FCool.12 mph44%30.09 "HgN/A
1:00 PM54 °FCool.13 mph34%30.09 "HgN/A
12:00 PM50 °FPassing clouds.6 mph39%30.11 "Hg16 mi
Weather by CustomWeather, © 2016

See weather overviewHow to use our weather pages